Location: Falniów
(50.3639°N, 19.9642°E)
Time: 17:29:59
(UTC+00:00)

Landsat 7 - Pass Details

Date: 18 January 2026
Orbit: 680 x 682 km, 97.9° (Epoch: 16 February)

Event Time Altitude Azimuth Distance (km) Brightness Sun altitude
Rises 05:08:05 0° 14° (NNE) 3,055 7.1 -13.0°
Reaches altitude 10° 05:10:20 10° 16° (NNE) 2,135 6.3 -12.6°
Maximum altitude 05:15:01 78° 104° (ESE) 703 3.9 -11.9°
Drops below altitude 10° 05:19:39 10° 190° (S) 2,117 6.4 -11.2°
Sets 05:21:53 0° 192° (SSW) 3,027 7.2 -10.9°
